Starlink 5498

operational
NORAD ID: 55633 Int'l Des: 2023-021 Owner: SPXS Country: US Constellation: starlink
LEOCIRCULAR

关于 Starlink 5498

正在加载描述...

实时位置

正在加载3D地球...

即将过境

高度历史

Altitude vs Time

uPlot chart will show altitude changes over time

两行轨道根数

1 55633U 23021F 25351.34154216 -.00000241 00000-0 -12366-4 0 9993
2 55633 70.0007 52.0690 0003115 270.4736 89.6066 14.98334306155961
Epoch: Dec 17, 2025 • Age: 4 hours

当前状态

高度 593.8 km
速度 7.56 km/s
星下点 -63.81°S, 4.74°E
发射日期 Feb 17, 2023
运行时间 2.8 years
类型 internet

技术详情

分类 Payload
质量 305.00 kg
干质量 290.00 kg
总质量 305.00 kg
长度 0.20 m
直径 2.80 m
跨度 9.00 m
形状 Box + pan
制造商 SPXS
平台类型 Starlink
阶段状态 In Orbit
所有者/国家 SPXS/US

大型星座

Loading constellations...